Terug naar catalogus

CZ-6A DEB

ActiefPO
NORAD 60874·DEBRIS·🇨🇳 China

Gelanceerd Aug 6, 2024 vanaf Taiyuan Satellite Launch Center

Loading…

Volgende Passages (komende 24 uur)

TLE

VersSource: Space-Track

Epoch: Sep 14, 2026, 10:30 UTC

1 60874U 24140KD  26257.43750489  .00000895  00000-0  20158-3 0  9999
2 60874  88.8778 248.5589 0099353 326.1061  33.3822 14.52545282110317

Volg CZ-6A DEB in realtime met AllMySat

Download on the App Store